Weather History for Homer, AK

Change the Weather History Date:

Wednesday, July 9, 2014

  Actual Average Record
Temperature  
Mean Temperature 58 °F -  
Max Temperature 60 °F 61 °F 80 °F (2004)
Min Temperature 55 °F 46 °F 37 °F (1947)
Degree Days  
Heating Degree Days 8    
Growing Degree Days 8 (Base 50)    
Moisture  
Dew Point 48 °F    
Average Humidity 70    
Maximum Humidity 77    
Minimum Humidity 57    
Precipitation  
Precipitation 0.15 in - - ()
Sea Level Pressure  
Sea Level Pressure 30.02 in    
Wind  
Wind Speed 4 mph (East)    
Max Wind Speed 8 mph    
Max Gust Speed -    
Visibility 10 miles    
Events Rain    
Averages and records for this station are not official NWS values.
T = Trace of Precipitation, MM = Missing Value Source: NWS Daily Summary

Daily Weather History Graph

Daily Weather History Graph

Search for Another Location

Airport:

Trip Planner

Search our weather history database for the weather conditions in past years. The results will help you decide how hot, cold, wet, or windy it might be!

Date:

Astronomy

Jul. 09, 2014 Rise Set
Actual Time 5:02 AM AKDT 11:18 PM AKDT
Civil Twilight 3:40 AM AKDT 12:39 AM AKDT
Nautical Twilight Sun does not rise Sun does not rise
Astronomical Twilight Sun does not rise Sun does not rise
Moon 8:18 PM AKDT (7/9) 2:57 AM AKDT (7/9)
Length of Visible Light 20h 59m
Length of Day
18h 15m
Waxing Gibbous, 90% of the Moon is Illuminated
Jul 9
Waxing Gibbous
Jul 12
Full
Jul 18
Last Quarter
Jul 26
New
Aug 3
First Quarter

Hourly Weather History & Observations

Time (AKDT) Temp. Dew Point Humidity Pressure Visibility Wind Dir Wind Speed Gust Speed Precip Events Conditions
12:53 AM 60.1 °F 45.0 °F 57% 30.03 in 10.0 mi SE 5.8 mph - N/A   Overcast
1:53 AM 57.9 °F 48.0 °F 70% 30.03 in 10.0 mi South 8.1 mph - N/A   Mostly Cloudy
2:53 AM 57.0 °F 48.0 °F 72% 30.04 in 10.0 mi WSW 3.5 mph - N/A   Overcast
3:53 AM 57.9 °F 46.9 °F 67% 30.04 in 10.0 mi Variable 6.9 mph - N/A   Mostly Cloudy
4:53 AM 57.9 °F 46.0 °F 65% 30.04 in 10.0 mi Variable 5.8 mph - N/A   Mostly Cloudy
5:53 AM 57.9 °F 46.0 °F 65% 30.05 in 10.0 mi Calm Calm - N/A   Overcast
6:53 AM 57.9 °F 46.0 °F 65% 30.05 in 10.0 mi ESE 3.5 mph - N/A   Overcast
7:53 AM 55.9 °F 48.0 °F 75% 30.05 in 10.0 mi NE 5.8 mph - 0.00 in Rain Light Rain
8:53 AM 57.0 °F 50.0 °F 77% 30.05 in 8.0 mi NNE 3.5 mph - 0.02 in Rain Light Rain
9:53 AM 57.9 °F 48.9 °F 72% 30.06 in 10.0 mi NNE 3.5 mph - 0.01 in   Overcast
10:53 AM 57.9 °F 48.0 °F 70% 30.06 in 10.0 mi Calm Calm - 0.00 in Rain Light Rain
11:53 AM 57.9 °F 46.9 °F 67% 30.06 in 10.0 mi SSW 5.8 mph - 0.00 in Rain Light Rain
12:53 PM 57.9 °F 48.9 °F 72% 30.06 in 10.0 mi SSW 4.6 mph - 0.02 in Rain Light Rain
1:53 PM 57.9 °F 48.0 °F 70% 30.06 in 10.0 mi Calm Calm - 0.01 in Rain Light Rain
2:53 PM 57.9 °F 48.0 °F 70% 30.06 in 10.0 mi Calm Calm - 0.02 in Rain Light Rain
3:53 PM 57.9 °F 48.9 °F 72% 30.05 in 10.0 mi Calm Calm - 0.03 in Rain Light Rain
4:53 PM 57.9 °F 50.0 °F 75% 30.04 in 10.0 mi Calm Calm - 0.02 in Rain Light Rain
5:53 PM 59.0 °F 48.0 °F 67% 30.02 in 10.0 mi NE 4.6 mph - 0.01 in Rain Light Rain
6:53 PM 57.9 °F 48.9 °F 72% 30.01 in 10.0 mi NE 4.6 mph - 0.00 in   Overcast
7:53 PM 57.9 °F 48.9 °F 72% 29.98 in 10.0 mi Calm Calm - 0.00 in   Overcast
8:53 PM 57.9 °F 48.0 °F 70% 29.96 in 10.0 mi ENE 5.8 mph - N/A   Overcast
9:53 PM 57.0 °F 46.9 °F 69% 29.94 in 10.0 mi Variable 3.5 mph - 0.00 in Rain Light Rain
10:53 PM 55.0 °F 48.0 °F 77% 29.92 in 10.0 mi Calm Calm - 0.00 in Rain Light Rain
11:53 PM 55.0 °F 46.0 °F 72% 29.88 in 10.0 mi NE 8.1 mph - 0.01 in   Overcast